Voltar ao catálogo

DIGUI TONGXIN SHIYAN WEI.

AtivoMilitarPO
NORAD 52718·PAYLOAD·🇨🇳 China
Este nome de satélite ainda não foi confirmado por fontes oficiais.

Lançado May 20, 2022 de Jiuquan Satellite Launch Center

Loading…

Próximas Passagens (próximas 24 horas)

TLE

AtualizadoSource: Space-Track

Época: Sep 14, 2026, 13:39 UTC

1 52718U 22056C   26257.56936509  .00000102  00000-0  52560-4 0  9998
2 52718  86.0097 344.2278 0016840 102.0737 258.2330 14.04400888221436

Acompanhe DIGUI TONGXIN SHIYAN WEI. em tempo real com AllMySat

Download on the App Store